This is the latest recevied weather packets stored in our database for station/object K5BOU. If no packets are shown the sender has not sent any weather packets the latest 10 day(s).
| Time | Temp. | Humidity | Pressure | Rain* | Wind** | Luminosity | Snow |
|---|---|---|---|---|---|---|---|
| 1777931367 | 26.11° C | 74% | 1009.5 hPa | 0 mm | - | 118 W/m² | - |
| 1777931064 | 26.11° C | 73% | 1009.6 hPa | 0 mm | - | 172 W/m² | - |
| 1777930760 | 26.11° C | 73% | 1009.5 hPa | 0 mm | - | 190 W/m² | - |
| 1777930456 | 26.11° C | 73% | 1009.5 hPa | 0 mm | - | 203 W/m² | - |
| 1777930154 | 26.11° C | 73% | 1009.6 hPa | 0 mm | - | 257 W/m² | - |
| 1777929849 | 26.67° C | 73% | 1009.7 hPa | 0 mm | - | 245 W/m² | - |
| 1777929548 | 26.11° C | 72% | 1009.9 hPa | 0 mm | - | 198 W/m² | - |
| 1777929244 | 26.11° C | 72% | 1009.9 hPa | 0 mm | - | 232 W/m² | - |
| 1777928941 | 26.67° C | 72% | 1009.8 hPa | 0 mm | - | 169 W/m² | - |
| 1777928638 | 26.67° C | 71% | 1010.1 hPa | 0 mm | - | 143 W/m² | - |
| 1777928335 | 26.67° C | 71% | 1010.1 hPa | 0 mm | - | 228 W/m² | - |
| 1777928033 | 26.67° C | 70% | 1010 hPa | 0 mm | - | 203 W/m² | - |
| 1777927731 | 27.22° C | 69% | 1010.3 hPa | 0 mm | - | 248 W/m² | - |
| 1777927429 | 27.78° C | 69% | 1010.1 hPa | 0 mm | - | 261 W/m² | - |
| 1777927128 | 27.22° C | 69% | 1010.3 hPa | 0 mm | - | 369 W/m² | - |
| 1777926824 | 27.22° C | 69% | 1010.2 hPa | 0 mm | - | 287 W/m² | - |
| 1777926520 | 27.78° C | 69% | 1010.3 hPa | 0 mm | - | 308 W/m² | - |
| 1777926218 | 27.22° C | 70% | 1010.2 hPa | 0 mm | - | 386 W/m² | - |
| 1777925914 | 27.22° C | 68% | 1010.4 hPa | 0 mm | - | 395 W/m² | - |
| 1777925612 | 26.67° C | 69% | 1010.7 hPa | 0 mm | - | 371 W/m² | - |
| 1777925309 | 27.22° C | 68% | 1010.7 hPa | 0 mm | - | 243 W/m² | - |
| 1777925005 | 27.22° C | 69% | 1010.6 hPa | 0 mm | - | 341 W/m² | - |
| 1777924701 | 27.22° C | 67% | 1010.7 hPa | 0 mm | - | 228 W/m² | - |
| 1777924397 | 27.22° C | 68% | 1010.8 hPa | 0 mm | - | 716 W/m² | - |
| 1777924094 | 27.22° C | 68% | 1011 hPa | 0 mm | - | 402 W/m² | - |
* Rain latest hour (hover to see other rain measurements)
** Current wind speed in m/s (hover to see current wind gust speed)